Hourly Data Report for February 23, 2002

SHERBROOKE A
QUEBEC

45°26'00.000" N
71°41'00.000" W
241.40 m
7028124
71610
YSC

Download Data

Hourly Data (February 2002)
Hourly Data Report for February 23, 2002
TIME
LST
Temp Definition
°C
Dew Point Definition
°C
Rel Hum Definition
%
Precip. Amount Definition
mm

Wind Dir Definition
10's deg

Wind Spd Definition
km/h
Visibility Definition
km
Stn Press Definition
kPa
Hmdx Definition


Wind Chill Definition


Weather Definition


00:00 -5.0 -6.7 88   24 11 8.0 98.52   -10 Snow
01:00 -5.0 -6.8 87   24 11 6.4 98.53   -10 Snow
02:00 -5.1 -6.8 88   25 13 11.3 98.54   -10 Snow
03:00 -5.7 -7.4 88   29 11 8.0 98.59   -10 Snow
04:00 -6.6 -8.6 86   28 15 6.4 98.61   -13 Snow
05:00 -7.3 -9.7 83   28 13 15.0 98.66   -13 Snow
06:00 -7.7 -9.7 86   30 11 6.4 98.70   -13 Snow
07:00 -8.1 -10.2 85   28 6 4.8 98.81   -11 Snow
08:00 -8.4 -10.2 87   27 11 12.9 98.84   -14 Snow Showers
09:00 -8.1 -10.7 82   28 9 19.3 98.89   -13 Snow Showers
10:00 -7.2 -10.5 77   28 17 24.1 98.91   -14 Snow Showers
11:00 -6.8 -10.3 76   28 15 19.3 98.89   -13 Snow
12:00 -5.8 -10.3 70   27 19 24.1 98.87   -12 Snow
13:00 -4.9 -10.1 67   25 15 24.1 98.83   -10 Snow
14:00 -5.0 -9.6 70   28 19 24.1 98.85   -11 Snow
15:00 -5.5 -10.0 71   27 17 24.1 98.91   -12 Mostly Cloudy
16:00 -5.8 -10.1 72   27 17 24.1 98.98   -12 Snow Showers
17:00 -6.3 -10.6 72   26 11 24.1 99.04   -11 Mostly Cloudy
18:00 -7.0 -10.6 75   26 4 15.0 99.13   -9  
19:00 -11.2 -12.7 89   20 6 15.0 99.18   -15  
20:00 -12.1 -13.3 91     0 15.0 99.21      
21:00 -12.8 -13.6 94     0 15.0 99.24      
22:00 -13.2 -13.9 94   10 6 12.9 99.26   -17  
23:00 -13.7 -14.5 94   10 4 15.0 99.32   -16  

Notes on Data Quality.

Legend

  • E = Estimated
  • M = Missing
  • NA = Not Available*
  • [empty] = Indicates an unobserved value
Date modified: